Time,TemperatureF,DewpointF,PressureIn,WindDirection,WindDirectionDegrees,WindSpeedMPH,WindSpeedGustMPH,Humidity,HourlyPrecipIn,Conditions,Clouds,dailyrainin,SoftwareType,DateUTC
2015-05-22 00:06:00,59.5,56.0,29.95,East,98,0.0,0.0,88,0.00,,,0.00,weatherlink.com 1.10,2015-05-22 04:06:00,
2015-05-22 00:21:00,59.4,56.0,29.95,East,98,0.0,0.0,88,0.00,,,0.00,weatherlink.com 1.10,2015-05-22 04:21:00,
2015-05-22 00:36:00,59.4,56.0,29.96,East,98,0.0,0.0,88,0.00,,,0.00,weatherlink.com 1.10,2015-05-22 04:36:00,
2015-05-22 00:52:00,59.3,56.0,29.96,East,98,0.0,0.0,88,0.00,,,0.00,weatherlink.com 1.10,2015-05-22 04:52:00,
2015-05-22 01:06:00,59.0,56.0,29.96,East,98,0.0,0.0,88,0.00,,,0.00,weatherlink.com 1.10,2015-05-22 05:06:00,
2015-05-22 01:21:00,58.6,55.0,29.97,East,98,0.0,1.0,88,0.00,,,0.00,weatherlink.com 1.10,2015-05-22 05:21:00,
2015-05-22 01:36:00,58.5,55.0,29.98,East,98,0.0,0.0,89,0.00,,,0.00,weatherlink.com 1.10,2015-05-22 05:36:00,
2015-05-22 01:51:00,58.6,55.0,29.99,East,98,0.0,1.0,89,0.00,,,0.00,weatherlink.com 1.10,2015-05-22 05:51:00,
2015-05-22 02:06:00,58.6,55.0,29.99,East,97,0.0,1.0,89,0.00,,,0.00,weatherlink.com 1.10,2015-05-22 06:06:00,
2015-05-22 02:21:00,58.5,55.0,29.99,East,96,0.0,2.0,88,0.00,,,0.00,weatherlink.com 1.10,2015-05-22 06:21:00,
2015-05-22 02:36:00,58.5,55.0,29.99,East,96,0.0,0.0,88,0.00,,,0.00,weatherlink.com 1.10,2015-05-22 06:36:00,
2015-05-22 02:51:00,58.4,55.0,29.99,East,96,0.0,0.0,89,0.00,,,0.00,weatherlink.com 1.10,2015-05-22 06:51:00,
2015-05-22 03:06:00,58.3,55.0,29.99,East,96,0.0,0.0,89,0.00,,,0.00,weatherlink.com 1.10,2015-05-22 07:06:00,
2015-05-22 03:21:00,58.2,55.0,30.00,East,96,0.0,0.0,89,0.00,,,0.00,weatherlink.com 1.10,2015-05-22 07:21:00,
2015-05-22 03:36:00,58.1,55.0,30.00,East,96,0.0,1.0,89,0.00,,,0.00,weatherlink.com 1.10,2015-05-22 07:36:00,
2015-05-22 03:51:00,57.9,54.0,30.00,East,96,0.0,0.0,88,0.00,,,0.00,weatherlink.com 1.10,2015-05-22 07:51:00,
2015-05-22 04:06:00,57.8,54.0,30.02,East,96,0.0,1.0,88,0.00,,,0.00,weatherlink.com 1.10,2015-05-22 08:06:00,
2015-05-22 04:21:00,57.5,54.0,30.03,East,96,0.0,1.0,87,0.00,,,0.00,weatherlink.com 1.10,2015-05-22 08:21:00,
2015-05-22 04:36:00,57.3,54.0,30.02,East,96,0.0,0.0,88,0.00,,,0.00,weatherlink.com 1.10,2015-05-22 08:36:00,
2015-05-22 04:51:00,56.9,53.0,30.03,West,261,0.0,2.0,85,0.00,,,0.00,weatherlink.com 1.10,2015-05-22 08:51:00,
2015-05-22 05:06:00,56.8,52.0,30.05,WNW,292,0.0,1.0,84,0.00,,,0.00,weatherlink.com 1.10,2015-05-22 09:06:00,
2015-05-22 05:21:00,56.7,51.0,30.05,WSW,246,0.0,2.0,80,0.00,,,0.00,weatherlink.com 1.10,2015-05-22 09:21:00,
2015-05-22 05:36:00,56.6,50.0,30.05,WSW,257,0.0,1.0,78,0.00,,,0.00,weatherlink.com 1.10,2015-05-22 09:36:00,
2015-05-22 05:51:00,56.6,49.0,30.06,West,263,0.0,2.0,77,0.00,,,0.00,weatherlink.com 1.10,2015-05-22 09:51:00,
2015-05-22 06:06:00,56.2,49.0,30.07,West,261,0.0,3.0,76,0.00,,,0.00,weatherlink.com 1.10,2015-05-22 10:06:00,
2015-05-22 06:21:00,55.9,49.0,30.08,ESE,111,0.0,3.0,77,0.00,,,0.00,weatherlink.com 1.10,2015-05-22 10:21:00,
2015-05-22 06:36:00,55.6,49.0,30.09,ESE,113,0.0,1.0,77,0.00,,,0.00,weatherlink.com 1.10,2015-05-22 10:36:00,
2015-05-22 06:51:00,55.3,49.0,30.10,WNW,288,0.0,1.0,79,0.00,,,0.00,weatherlink.com 1.10,2015-05-22 10:51:00,
2015-05-22 07:07:00,55.2,49.0,30.11,West,278,0.0,1.0,79,0.00,,,0.00,weatherlink.com 1.10,2015-05-22 11:07:00,
2015-05-22 07:22:00,55.2,49.0,30.11,West,279,0.0,1.0,79,0.00,,,0.00,weatherlink.com 1.10,2015-05-22 11:22:00,
2015-05-22 07:37:00,55.5,48.0,30.12,West,280,0.0,0.0,77,0.00,,,0.00,weatherlink.com 1.10,2015-05-22 11:37:00,